| time (UTC) | temp C | wind direction | speed KPH | gust KPH | rain 1hr cm | rain 24hr cm | rain mn cm | humidity % | barometer mb |
| 20260505235004 | 11 | 350 | 0.0 | 3.2 | 0.03 | 1.12 | 0.25 | 94 | 1008.6 |
| 20260505234003 | 11 | 309 | 0.0 | 1.6 | 0.03 | 1.12 | 0.25 | 94 | 1009.0 |
| 20260505233005 | 11 | 272 | 0.0 | 1.6 | 0.05 | 1.12 | 0.25 | 94 | 1009.1 |
| 20260505232003 | 11 | 293 | 0.0 | 1.6 | 0.08 | 1.12 | 0.25 | 94 | 1009.0 |
| 20260505230004 | 11 | 330 | 0.0 | 1.6 | 0.25 | 1.12 | 0.25 | 94 | 1009.1 |
| 20260505225004 | 11 | 10 | 0.0 | 3.2 | 0.30 | 1.09 | 0.23 | 94 | 1008.9 |
| 20260505224004 | 11 | 310 | 0.0 | 3.2 | 0.36 | 1.09 | 0.23 | 94 | 1009.5 |
| 20260505223005 | 11 | 226 | 0.0 | 3.2 | 0.38 | 1.09 | 0.23 | 93 | 1009.9 |
| 20260505222003 | 11 | 0 | 0.0 | 0.0 | 0.38 | 1.07 | 0.18 | 93 | 1010.1 |
| 20260505221003 | 11 | 0 | 0.0 | 0.0 | 0.33 | 0.99 | 0.10 | 93 | 1010.2 |
| 20260505215003 | 11 | 0 | 0.0 | 0.0 | 0.18 | 0.89 | 0.86 | 92 | 1010.1 |
| 20260505214004 | 11 | 302 | 0.0 | 1.6 | 0.15 | 0.86 | 0.79 | 92 | 1010.1 |
| 20260505213004 | 11 | 297 | 0.0 | 3.2 | 0.13 | 1.07 | 0.76 | 91 | 1010.1 |
| 20260505211003 | 11 | 317 | 1.6 | 11.3 | 0.10 | 1.12 | 0.71 | 91 | 1009.9 |
| 20260505210004 | 11 | 301 | 1.6 | 6.4 | 0.15 | 1.12 | 0.71 | 91 | 1010.0 |
| 20260505205004 | 11 | 308 | 1.6 | 6.4 | 0.18 | 1.09 | 0.69 | 91 | 1010.1 |
| 20260505204005 | 11 | 306 | 1.6 | 8.0 | 0.18 | 1.09 | 0.66 | 91 | 1010.1 |
| 20260505203004 | 11 | 311 | 1.6 | 4.8 | 0.18 | 1.09 | 0.64 | 91 | 1009.8 |
| 20260505202004 | 12 | 319 | 1.6 | 4.8 | 0.15 | 1.07 | 0.61 | 90 | 1009.9 |
| 20260505201003 | 12 | 310 | 1.6 | 3.2 | 0.13 | 1.02 | 0.58 | 89 | 1010.0 |
| 20260505200005 | 12 | 317 | 1.6 | 8.0 | 0.08 | 1.04 | 0.53 | 88 | 1010.0 |
| 20260505194004 | 13 | 317 | 3.2 | 9.7 | 0.08 | 1.14 | 0.48 | 85 | 1009.7 |
| 20260505193004 | 13 | 313 | 3.2 | 11.3 | 0.05 | 1.12 | 0.46 | 86 | 1009.7 |
| 20260505192004 | 14 | 327 | 0.0 | 3.2 | 0.05 | 1.17 | 0.46 | 89 | 1009.4 |
| 20260505190004 | 15 | 0 | 0.0 | 0.0 | 0.05 | 1.24 | 0.46 | 89 | 1009.1 |
| 20260505185004 | 15 | 0 | 0.0 | 0.0 | 0.05 | 1.32 | 0.46 | 87 | 1009.1 |
| 20260505182004 | 15 | 190 | 0.0 | 4.8 | 0.00 | 1.60 | 0.41 | 85 | 1008.9 |
| 20260505181004 | 15 | 317 | 0.0 | 3.2 | 0.00 | 1.91 | 0.41 | 85 | 1008.9 |
| 20260505180004 | 15 | 225 | 0.0 | 3.2 | 0.00 | 2.01 | 0.41 | 86 | 1009.1 |
| 20260505175003 | 15 | 200 | 0.0 | 1.6 | 0.00 | 2.11 | 0.41 | 87 | 1009.0 |
| 20260505174004 | 15 | 209 | 0.0 | 3.2 | 0.00 | 2.18 | 0.41 | 87 | 1009.0 |
| 20260505172004 | 15 | 175 | 0.0 | 1.6 | 0.03 | 2.44 | 0.41 | 86 | 1008.7 |
| 20260505171003 | 15 | 224 | 0.0 | 1.6 | 0.05 | 2.54 | 0.41 | 88 | 1008.8 |
| 20260505170005 | 15 | 337 | 0.0 | 1.6 | 0.05 | 2.84 | 0.41 | 88 | 1008.6 |
| 20260505165003 | 15 | 17 | 0.0 | 1.6 | 0.05 | 3.00 | 0.41 | 86 | 1008.3 |
| 20260505163004 | 15 | 201 | 0.0 | 4.8 | 0.03 | 3.33 | 0.38 | 84 | 1008.9 |
| 20260505162003 | 16 | 219 | 1.6 | 12.9 | 0.03 | 3.43 | 0.38 | 83 | 1009.0 |
| 20260505161003 | 17 | 209 | 3.2 | 14.5 | 0.00 | 3.76 | 0.36 | 78 | 1008.9 |
| 20260505153004 | 18 | 194 | 4.8 | 16.1 | 0.00 | 4.24 | 0.36 | 71 | 1008.8 |
| 20260505152003 | 18 | 199 | 3.2 | 22.5 | 0.00 | 4.27 | 0.36 | 72 | 1008.8 |
| 20260505151004 | 18 | 185 | 3.2 | 14.5 | 0.00 | 4.29 | 0.36 | 70 | 1008.9 |
| 20260505125004 | 21 | 189 | 4.8 | 16.1 | 0.00 | 5.41 | 0.36 | 63 | 1008.9 |
| 20260505123005 | 21 | 179 | 3.2 | 16.1 | 0.00 | 5.44 | 0.36 | 66 | 1008.9 |
| 20260505122003 | 20 | 172 | 4.8 | 12.9 | 0.00 | 5.46 | 0.36 | 69 | 1009.0 |
| 20260505121004 | 20 | 167 | 3.2 | 12.9 | 0.00 | 5.51 | 0.36 | 70 | 1009.1 |
| 20260505120005 | 20 | 204 | 3.2 | 14.5 | 0.00 | 5.64 | 0.36 | 70 | 1009.1 |
| 20260505115004 | 21 | 188 | 3.2 | 11.3 | 0.00 | 5.79 | 0.36 | 67 | 1009.1 |
| 20260505112004 | 20 | 188 | 3.2 | 11.3 | 0.00 | 5.94 | 0.36 | 68 | 1009.4 |
| 20260505111003 | 21 | 179 | 3.2 | 12.9 | 0.00 | 6.07 | 0.36 | 67 | 1009.5 |
| 20260505102004 | 21 | 215 | 1.6 | 8.0 | 0.00 | 6.43 | 0.36 | 72 | 1009.7 |
| 20260505101004 | 20 | 192 | 1.6 | 9.7 | 0.00 | 6.43 | 0.36 | 79 | 1009.7 |
| 20260505100004 | 18 | 199 | 1.6 | 9.7 | 0.00 | 6.45 | 0.36 | 91 | 1009.7 |
| 20260505095003 | 18 | 207 | 1.6 | 4.8 | 0.00 | 6.45 | 0.36 | 92 | 1009.7 |
| 20260505093004 | 18 | 251 | 0.0 | 6.4 | 0.00 | 6.45 | 0.36 | 92 | 1009.8 |
| 20260505092004 | 18 | 214 | 1.6 | 6.4 | 0.00 | 6.53 | 0.36 | 93 | 1009.8 |
| 20260505091004 | 18 | 345 | 0.0 | 3.2 | 0.00 | 6.53 | 0.36 | 93 | 1009.8 |
| 20260505090004 | 17 | 212 | 0.0 | 4.8 | 0.00 | 6.53 | 0.36 | 93 | 1009.7 |
| 20260505085004 | 17 | 313 | 1.6 | 8.0 | 0.00 | 6.53 | 0.36 | 91 | 1009.6 |
| 20260505084003 | 17 | 248 | 0.0 | 3.2 | 0.00 | 6.53 | 0.36 | 93 | 1009.6 |
| 20260505083005 | 17 | 46 | 0.0 | 1.6 | 0.00 | 6.55 | 0.36 | 94 | 1009.7 |
| 20260505082004 | 17 | 254 | 0.0 | 3.2 | 0.00 | 6.63 | 0.36 | 94 | 1009.7 |
| 20260505081004 | 17 | 317 | 0.0 | 4.8 | 0.00 | 6.68 | 0.36 | 93 | 1009.7 |
| 20260505074003 | 17 | 220 | 0.0 | 3.2 | 0.00 | 6.76 | 0.36 | 94 | 1009.5 |
| 20260505073004 | 16 | 198 | 0.0 | 1.6 | 0.00 | 6.91 | 0.36 | 94 | 1009.4 |
| 20260505071003 | 16 | 159 | 0.0 | 3.2 | 0.00 | 7.32 | 0.36 | 94 | 1009.4 |
| 20260505070005 | 16 | 199 | 0.0 | 3.2 | 0.00 | 7.42 | 0.36 | 94 | 1009.6 |
| 20260505065003 | 16 | 347 | 0.0 | 1.6 | 0.00 | 7.47 | 0.36 | 95 | 1009.5 |
| 20260505064004 | 15 | 0 | 0.0 | 0.0 | 0.00 | 7.52 | 0.36 | 95 | 1009.5 |
| 20260505062004 | 14 | 328 | 0.0 | 1.6 | 0.00 | 7.54 | 0.36 | 95 | 1009.3 |
| 20260505061004 | 14 | 0 | 0.0 | 0.0 | 0.00 | 7.57 | 0.36 | 96 | 1009.2 |
| 20260505060004 | 13 | 328 | 0.0 | 1.6 | 0.00 | 7.57 | 0.36 | 96 | 1009.0 |
| 20260505055003 | 13 | 328 | 0.0 | 1.6 | 0.00 | 7.57 | 0.36 | 96 | 1009.0 |
| 20260505054004 | 13 | 330 | 0.0 | 3.2 | 0.00 | 7.57 | 0.36 | 96 | 1009.0 |
| 20260505053004 | 12 | 0 | 0.0 | 0.0 | 0.00 | 7.59 | 0.36 | 96 | 1008.9 |
| 20260505051004 | 11 | 0 | 0.0 | 0.0 | 0.00 | 7.77 | 0.36 | 96 | 1008.8 |
| 20260505041004 | 12 | 0 | 0.0 | 0.0 | 0.00 | 8.71 | 0.36 | 96 | 1008.5 |
| 20260505040005 | 12 | 0 | 0.0 | 0.0 | 0.03 | 8.74 | 0.36 | 96 | 1008.4 |
| 20260505035003 | 12 | 306 | 0.0 | 1.6 | 0.08 | 8.84 | 0.36 | 96 | 1008.3 |
| 20260505033004 | 12 | 11 | 1.6 | 4.8 | 0.20 | 8.89 | 0.36 | 96 | 1008.5 |
| 20260505030005 | 12 | 324 | 1.6 | 8.0 | 0.23 | 9.07 | 0.33 | 96 | 1008.7 |
| 20260505025004 | 12 | 312 | 1.6 | 4.8 | 0.15 | 9.22 | 0.28 | 96 | 1008.7 |
| 20260505024004 | 12 | 306 | 1.6 | 4.8 | 0.08 | 9.22 | 0.18 | 96 | 1008.7 |
| 20260505023004 | 12 | 313 | 1.6 | 6.4 | 0.05 | 9.22 | 0.15 | 96 | 1008.8 |
| 20260505022004 | 12 | 323 | 3.2 | 11.3 | 0.05 | 9.25 | 0.15 | 96 | 1008.7 |
| 20260505021004 | 12 | 18 | 4.8 | 11.3 | 0.05 | 9.30 | 0.15 | 96 | 1008.7 |
| 20260505020005 | 13 | 20 | 4.8 | 14.5 | 0.05 | 9.37 | 0.13 | 96 | 1008.6 |
| 20260505015004 | 13 | 15 | 3.2 | 9.7 | 0.05 | 9.45 | 0.13 | 96 | 1008.6 |
| 20260505014003 | 13 | 350 | 1.6 | 3.2 | 0.03 | 9.53 | 0.10 | 96 | 1008.6 |
| 20260505013004 | 14 | 137 | 0.0 | 1.6 | 0.05 | 9.65 | 0.10 | 96 | 1008.5 |
| 20260505012004 | 14 | 0 | 0.0 | 0.0 | 0.05 | 9.68 | 0.10 | 96 | 1008.5 |
| 20260505011003 | 14 | 116 | 0.0 | 3.2 | 0.05 | 9.70 | 0.10 | 96 | 1008.5 |
| 20260505010004 | 13 | 85 | 0.0 | 3.2 | 0.03 | 9.68 | 0.08 | 96 | 1008.6 |
| 20260505005004 | 13 | 68 | 0.0 | 1.6 | 0.03 | 9.68 | 0.08 | 96 | 1008.6 |
| 20260505003005 | 13 | 22 | 1.6 | 4.8 | 0.00 | 9.65 | 0.05 | 96 | 1009.0 |
| 20260505002004 | 14 | 92 | 1.6 | 9.7 | 0.00 | 9.65 | 0.05 | 96 | 1009.1 |
| 20260505001003 | 14 | 103 | 1.6 | 9.7 | 0.00 | 9.65 | 0.05 | 96 | 1009.0 |
| 20260505000005 | 14 | 74 | 1.6 | 11.3 | 0.00 | 9.65 | 0.05 | 96 | 1009.1 |